Regional Weather Roundup
Issued by NWS

Home | Current Version | Previous Version | Graphics & Text | Print | Product List | Glossary On
Versions: 1 2 3 4 5 6 7 8 9 10 11 12 13 14 15 16 17 18 19 20 21 22 23 24 25 26 27 28 29 30 31 32 33 34 35 36 37 38 39 40 41
000
ASUS45 KBOU 220710
RWRCO

WEATHER ROUNDUP FOR COLORADO
NATIONAL WEATHER SERVICE PUEBLO CO
1200 AM MST THU FEB 22 2018

NOTE: "FAIR" INDICATES FEW OR NO CLOUDS BELOW 12000 FEET WITH NO
SIGNIFICANT WEATHER AND/OR OBSTRUCTIONS TO VISIBILITY.

COZ001>005-013-030-031-220800-
...NORTHWEST COLORADO...

CITY           SKY/WX    TMP DP  RH WIND       PRES   REMARKS
CRAIG          CLOUDY    14   7  73 CALM      30.02S
HAYDEN         LGT SNOW  11   5  77 S3        30.01S
MEEKER         LGT SNOW  21  17  84 SW5       29.99S FOG     WCI  15
RABBIT EARS PA NOT AVBL
STEAMBOAT SPGS CLOUDY    13   7  77 CALM      29.98S
WALDEN         CLOUDY    12   7  79 CALM      29.96F
$$

COZ006>008-011-220800-
...WEST CENTRAL VALLEYS...

CITY           SKY/WX    TMP DP  RH WIND       PRES   REMARKS
GRAND JUNCTION LGT SNOW  27  27 100 W3        30.04S FOG
MONTROSE       CLOUDY    25  23  92 N5        30.04R WCI  19
EAGLE          CLOUDY    20  11  68 CALM      30.00S
RIFLE          LGT SNOW  25  18  74 NE3       30.01R
DELTA          NOT AVBL
NUCLA          LGT SNOW  28  27  93 N3        30.04S
$$

COZ017>023-064>068-220800-
...SOUTHWEST COLORADO...

CITY           SKY/WX    TMP DP  RH WIND       PRES   REMARKS
DURANGO        CLOUDY    29  28  96 E3        30.00S
CORTEZ         CLOUDY    28  28 100 CALM      30.01S
PAGOSA SPRINGS LGT SNOW  27  26  99 CALM      30.00S
TELLURIDE      LGT SNOW  22  19  90 CALM      29.94S
WOLF CREEK PAS CLOUDY    12  10  92 SW25G40   29.93F WCI  -8
$$

COZ009-010-012-014-032>034-037-058>063-220800-
...CENTRAL COLORADO...

CITY           SKY/WX    TMP DP  RH WIND       PRES   REMARKS
ASPEN          CLOUDY    13   7  77 CALM      29.92S
BUENA VISTA    CLOUDY    19  12  76 SE8       29.97F WCI   9
COPPER MTN     CLOUDY    16   3  57 SE14G22   29.86F WCI   1
BERTHOUD PASS  CLOUDY     7  -4  61 S18G29    29.86S WCI -12
COTTONWOOD PAS LGT SNOW  19  18  93 CALM      29.92F
GUNNISON       CLOUDY    19  10  68 N6        29.95S WCI  11
KREMMLING      FAIR      12   5  73 CALM      29.98S
LEADVILLE      CLOUDY    10   2  69 CALM      29.89F
MONARCH PASS   SNOW      12  10  92 S16       29.99F VSB 1/2 WCI  -4
SALIDA         CLOUDY    19  16  87 SE10G17   30.06F WCI   8
SUNLIGHT       LGT SNOW  10   5  79 S6        29.92S WCI   1
WILKERSON PASS CLOUDY    14  10  85 SW10G20   29.93F WCI   1
$$

COZ069>075-220800-
...SAN LUIS VALLEY/SANGRE DE CRISTO MOUNTAINS...

CITY           SKY/WX    TMP DP  RH WIND       PRES   REMARKS
ALAMOSA        FAIR      28  21  75 S22G28    29.94F WCI  14
DEL NORTE      SNOW      24  23  93 CALM      29.96S VSB 1/2
LA VETA PASS   LGT SNOW  21  19  93 S21G36    30.04F VSB 1   WCI   6
SAGUACHE       NOT AVBL
$$

COZ035-036-038>040-220800-
...NORTHERN COLORADO FRONT RANGE...

CITY           SKY/WX    TMP DP  RH WIND       PRES   REMARKS
DENVER INTL AP MOCLDY    15   8  73 SW7       30.07F WCI   5
DMNS CITY PARK NOT AVBL
AURORA         MOCLDY    11   7  82 S5        30.06F WCI   3
FRONT RANGE AP MOCLDY    16  10  75 SW6       30.07F WCI   8
ERIE MUNI ARPT FAIR      10   7  85 SW3       30.15F
BOULDER MUN AP FAIR      14  10  85 CALM      30.07F
CENTENNIAL     MOCLDY    11   7  84 E5        30.04F WCI   3
BROOMFIELD     NOT AVBL
LOVELAND       FAIR      10   7  87 N7        30.10F WCI  -1
LONGMONT       FAIR      11   7  82 CALM      30.11F
$$

COZ041-046-047-076>085-087-088-220800-
...PIKES PEAK/PALMER DIVIDE AND SOUTHERN FOOTHILLS...

CITY           SKY/WX    TMP DP  RH WIND       PRES   REMARKS
COLO. SPRINGS  MOCLDY    13  11  92 SE5       30.07F WCI   5
A. F. ACADEMY  CLOUDY     8   4  82 NW3       30.03F
SCHRIEVER AFB  NOT AVBL
CHEYENNE MTN   NOT AVBL
ELLICOTT         N/A    N/A N/A N/A S5          N/A
FALCON         CLOUDY    13  11  93 MISG      30.03F
FORT CARSON    CLOUDY    15  11  86 S6        30.07F WCI   6
LIMON          CLOUDY    16  14  92 S9        30.11F WCI   4
MONUMENT HILL  CLOUDY    10   7  85 W10       30.01S WCI  -3
CANON CITY     PTCLDY    19  16  86 MISG      30.10F
WALSENBURG     CLOUDY    18  16  93 CALM      30.06F
TRINIDAD       FAIR      14  10  84 E3        30.06F
$$

COZ042>045-048>051-090-091-220800-
...NORTHEAST COLORADO...

CITY           SKY/WX    TMP DP  RH WIND       PRES   REMARKS
GREELEY ARPT   FAIR       1  -2  87 E5        30.12S WCI  -9
AKRON          CLOUDY    20  15  81 S15       30.14F WCI   6
BURLINGTON     FAIR      12   3  67 SE6       30.21S WCI   3
WRAY           CLOUDY    23  16  74 SE8       30.24F WCI  14
YUMA           NOT AVBL
STERLING       MOCLDY    19  14  79 S3        30.17F
HOLYOKE        MOCLDY    25  14  63 SE13      30.23S WCI  13
FORT MORGAN    FAIR      16  10  79 SE8       30.14F WCI   5
$$

COZ086-089-092>099-220800-
...SOUTHEAST COLORADO...

CITY           SKY/WX    TMP DP  RH WIND       PRES   REMARKS
PUEBLO         CLOUDY    20  14  77 E6        30.14S WCI  12
LA JUNTA       FAIR      16  13  88 NE6       30.15S WCI   7
LAMAR          FAIR      15   9  76 E6        30.19F WCI   6
SPRINGFIELD      N/A     20  11  68 SE14      30.16F WCI   7
$$





USA.gov is the U.S. government's official web portal to all federal, state and local government web resources and services.